Location: Brachbach
(49.1847°N, 9.7240°E)
Time: 02:02:11
(UTC+00:00)

SJ 16-02 - Pass Details

Date: 23 May 2024
Orbit: 594 x 606 km, 75.0° (Epoch: 19 June)

Event Time Altitude Azimuth Distance (km) Brightness Sun altitude
Exits shadow 01:40:42 16° 181° (S) 1,565 2.9 -13.3°
Maximum altitude 01:43:58 56° 107° (ESE) 710 1.7 -13.0°
Drops below altitude 10° 01:48:12 10° 29° (NNE) 1,940 5.4 -12.6°
Sets 01:50:27 0° 25° (NNE) 2,846 6.6 -12.4°
